Time,TemperatureF,DewpointF,PressureIn,WindDirection,WindDirectionDegrees,WindSpeedMPH,WindSpeedGustMPH,Humidity,HourlyPrecipIn,Conditions,Clouds,dailyrainin,SoftwareType,DateUTC
2013-05-04 00:01:00,72.1,69.3,29.80,WSW,247,1.2,2.6,91,0.00,,,0.00,Rainwise IP-100,2013-05-04 04:01:00,
2013-05-04 00:06:00,72.1,69.7,29.80,WSW,247,0.0,2.3,92,0.00,,,0.00,Rainwise IP-100,2013-05-04 04:06:00,
2013-05-04 00:11:00,72.0,69.7,29.80,WSW,247,0.0,1.2,92,0.00,,,0.00,Rainwise IP-100,2013-05-04 04:11:00,
2013-05-04 00:16:00,71.9,69.7,29.80,WSW,247,0.0,0.0,92,0.00,,,0.00,Rainwise IP-100,2013-05-04 04:16:00,
2013-05-04 00:21:00,71.9,69.7,29.80,WSW,247,1.9,3.0,92,0.00,,,0.00,Rainwise IP-100,2013-05-04 04:21:00,
2013-05-04 00:26:00,72.0,69.7,29.80,WSW,247,2.3,3.5,92,0.00,,,0.00,Rainwise IP-100,2013-05-04 04:26:00,
2013-05-04 00:31:00,72.0,69.7,29.80,West,270,3.7,3.7,92,0.00,,,0.00,Rainwise IP-100,2013-05-04 04:31:00,
2013-05-04 00:37:00,71.9,69.7,29.80,WSW,247,1.6,4.7,92,0.00,,,0.00,Rainwise IP-100,2013-05-04 04:37:00,
2013-05-04 00:42:00,71.9,69.7,29.80,WSW,247,1.6,3.7,92,0.00,,,0.00,Rainwise IP-100,2013-05-04 04:42:00,
2013-05-04 00:47:00,71.9,69.7,29.80,WSW,247,0.0,2.1,92,0.00,,,0.00,Rainwise IP-100,2013-05-04 04:47:00,
2013-05-04 00:52:00,71.8,69.7,29.80,WSW,247,2.1,2.8,93,0.00,,,0.00,Rainwise IP-100,2013-05-04 04:52:00,
2013-05-04 00:57:00,71.7,69.7,29.80,WSW,247,1.9,3.5,93,0.00,,,0.00,Rainwise IP-100,2013-05-04 04:57:00,
2013-05-04 01:00:00,71.6,69.7,29.80,WSW,247,1.6,2.6,93,0.00,,,0.00,Rainwise IP-100,2013-05-04 05:00:00,
2013-05-04 01:01:00,71.7,69.7,29.80,WSW,247,1.2,2.6,93,0.00,,,0.00,Rainwise IP-100,2013-05-04 05:01:00,
2013-05-04 01:06:00,71.7,69.7,29.79,WSW,247,0.0,1.9,93,0.00,,,0.00,Rainwise IP-100,2013-05-04 05:06:00,
2013-05-04 01:11:00,71.6,69.7,29.79,WSW,247,0.0,1.2,93,0.00,,,0.00,Rainwise IP-100,2013-05-04 05:11:00,
2013-05-04 01:16:00,71.5,69.7,29.79,WSW,247,0.0,0.0,93,0.00,,,0.00,Rainwise IP-100,2013-05-04 05:16:00,
2013-05-04 01:21:00,71.4,69.3,29.79,WSW,247,0.0,1.4,93,0.00,,,0.00,Rainwise IP-100,2013-05-04 05:21:00,
2013-05-04 01:26:00,71.3,69.3,29.79,West,270,2.6,3.7,93,0.00,,,0.00,Rainwise IP-100,2013-05-04 05:26:00,
2013-05-04 01:31:00,71.2,69.3,29.78,West,270,1.9,4.0,94,0.00,,,0.00,Rainwise IP-100,2013-05-04 05:31:00,
2013-05-04 01:36:00,71.3,69.3,29.78,WNW,292,1.6,4.0,94,0.00,,,0.00,Rainwise IP-100,2013-05-04 05:36:00,
2013-05-04 01:42:00,71.3,69.3,29.78,WSW,247,2.3,4.9,94,0.00,,,0.00,Rainwise IP-100,2013-05-04 05:42:00,
2013-05-04 01:47:00,71.3,69.3,29.78,WNW,292,2.3,4.4,94,0.00,,,0.00,Rainwise IP-100,2013-05-04 05:47:00,
2013-05-04 01:52:00,71.4,69.3,29.77,WNW,292,2.8,5.8,94,0.00,,,0.00,Rainwise IP-100,2013-05-04 05:52:00,
2013-05-04 01:57:00,71.5,69.7,29.77,WNW,292,1.9,5.6,93,0.00,,,0.00,Rainwise IP-100,2013-05-04 05:57:00,
2013-05-04 02:02:00,71.6,69.7,29.77,WNW,292,2.6,4.7,93,0.00,,,0.00,Rainwise IP-100,2013-05-04 06:02:00,
2013-05-04 02:07:00,71.6,69.7,29.77,WNW,292,4.0,4.7,93,0.00,,,0.00,Rainwise IP-100,2013-05-04 06:07:00,
2013-05-04 02:12:00,71.6,69.7,29.77,WNW,292,2.1,4.7,93,0.00,,,0.00,Rainwise IP-100,2013-05-04 06:12:00,
2013-05-04 02:18:00,71.6,69.7,29.77,WNW,292,3.7,4.4,93,0.00,,,0.00,Rainwise IP-100,2013-05-04 06:18:00,
2013-05-04 02:23:00,71.6,69.7,29.77,WSW,247,1.6,4.9,93,0.00,,,0.00,Rainwise IP-100,2013-05-04 06:23:00,
2013-05-04 02:28:00,71.6,69.7,29.76,West,270,1.6,4.2,93,0.00,,,0.00,Rainwise IP-100,2013-05-04 06:28:00,
2013-05-04 02:33:00,71.6,69.7,29.76,WSW,247,3.7,4.9,93,0.00,,,0.00,Rainwise IP-100,2013-05-04 06:33:00,
2013-05-04 02:38:00,71.6,69.7,29.76,WSW,247,3.0,7.2,93,0.00,,,0.00,Rainwise IP-100,2013-05-04 06:38:00,
2013-05-04 02:43:00,71.6,69.7,29.76,West,270,3.5,5.1,93,0.00,,,0.00,Rainwise IP-100,2013-05-04 06:43:00,
2013-05-04 02:48:00,71.6,69.7,29.76,West,270,4.4,7.5,93,0.00,,,0.00,Rainwise IP-100,2013-05-04 06:48:00,
2013-05-04 02:53:00,71.6,69.7,29.75,West,270,4.9,5.8,93,0.00,,,0.00,Rainwise IP-100,2013-05-04 06:53:00,
2013-05-04 02:59:00,71.5,69.7,29.75,West,270,1.6,6.8,94,0.00,,,0.00,Rainwise IP-100,2013-05-04 06:59:00,
2013-05-04 03:04:00,71.3,69.3,29.76,WSW,247,1.4,4.9,94,0.00,,,0.00,Rainwise IP-100,2013-05-04 07:04:00,
2013-05-04 03:09:00,71.3,69.3,29.76,WNW,292,3.3,6.5,94,0.00,,,0.00,Rainwise IP-100,2013-05-04 07:09:00,
2013-05-04 03:14:00,71.2,69.3,29.76,WNW,292,5.1,7.5,94,0.00,,,0.00,Rainwise IP-100,2013-05-04 07:14:00,
2013-05-04 03:19:00,71.2,69.3,29.76,WNW,292,3.7,6.1,94,0.00,,,0.00,Rainwise IP-100,2013-05-04 07:19:00,
2013-05-04 03:24:00,71.1,69.0,29.75,WNW,292,7.5,9.3,94,0.00,,,0.00,Rainwise IP-100,2013-05-04 07:24:00,
2013-05-04 03:29:00,71.0,69.0,29.76,WNW,292,4.0,7.5,94,0.00,,,0.00,Rainwise IP-100,2013-05-04 07:29:00,
2013-05-04 03:35:00,70.9,69.0,29.76,NW,315,4.9,8.2,94,0.00,,,0.00,Rainwise IP-100,2013-05-04 07:35:00,
2013-05-04 03:40:00,70.8,69.0,29.77,West,270,4.9,8.6,94,0.00,,,0.00,Rainwise IP-100,2013-05-04 07:40:00,
2013-05-04 03:45:00,70.7,69.0,29.76,WNW,292,3.0,8.4,94,0.00,,,0.00,Rainwise IP-100,2013-05-04 07:45:00,
2013-05-04 03:50:00,70.7,68.5,29.76,WSW,247,2.6,9.8,93,0.00,,,0.00,Rainwise IP-100,2013-05-04 07:50:00,
2013-05-04 03:55:00,70.6,68.5,29.76,WNW,292,6.8,9.1,93,0.00,,,0.00,Rainwise IP-100,2013-05-04 07:55:00,
2013-05-04 04:00:00,70.6,68.5,29.76,West,270,7.2,8.9,93,0.00,,,0.00,Rainwise IP-100,2013-05-04 08:00:00,
2013-05-04 04:05:00,70.5,68.5,29.75,WNW,292,2.6,7.7,93,0.00,,,0.00,Rainwise IP-100,2013-05-04 08:05:00,
2013-05-04 04:10:00,70.5,68.5,29.76,West,270,4.9,7.2,93,0.00,,,0.00,Rainwise IP-100,2013-05-04 08:10:00,
2013-05-04 04:16:00,70.4,68.5,29.76,WNW,292,2.3,4.9,93,0.00,,,0.00,Rainwise IP-100,2013-05-04 08:16:00,
2013-05-04 04:21:00,70.3,68.5,29.77,WSW,247,3.5,6.5,93,0.00,,,0.00,Rainwise IP-100,2013-05-04 08:21:00,
2013-05-04 04:26:00,70.3,69.0,29.76,WSW,247,2.3,7.0,94,0.00,,,0.00,Rainwise IP-100,2013-05-04 08:26:00,
2013-05-04 04:31:00,70.2,68.5,29.77,WNW,292,2.1,8.9,94,0.00,,,0.00,Rainwise IP-100,2013-05-04 08:31:00,
2013-05-04 04:36:00,70.1,68.5,29.77,WNW,292,5.1,8.2,94,0.00,,,0.00,Rainwise IP-100,2013-05-04 08:36:00,
2013-05-04 04:41:00,70.1,68.5,29.77,WNW,292,3.0,7.9,94,0.00,,,0.00,Rainwise IP-100,2013-05-04 08:41:00,
2013-05-04 04:46:00,70.0,68.5,29.77,WNW,292,3.5,6.8,94,0.00,,,0.00,Rainwise IP-100,2013-05-04 08:46:00,
2013-05-04 04:52:00,69.9,68.5,29.77,WNW,292,2.6,7.0,94,0.00,,,0.00,Rainwise IP-100,2013-05-04 08:52:00,
2013-05-04 04:57:00,69.9,68.5,29.77,WNW,292,3.0,7.5,94,0.00,,,0.00,Rainwise IP-100,2013-05-04 08:57:00,
2013-05-04 05:02:00,69.9,68.5,29.77,WNW,292,4.4,6.3,94,0.00,,,0.00,Rainwise IP-100,2013-05-04 09:02:00,
2013-05-04 05:07:00,69.8,68.0,29.77,WNW,292,3.5,4.7,94,0.00,,,0.00,Rainwise IP-100,2013-05-04 09:07:00,
2013-05-04 05:12:00,69.8,68.0,29.77,WNW,292,3.3,4.9,94,0.00,,,0.00,Rainwise IP-100,2013-05-04 09:12:00,
2013-05-04 05:17:00,69.7,68.0,29.77,WNW,292,1.9,4.0,94,0.00,,,0.00,Rainwise IP-100,2013-05-04 09:17:00,
2013-05-04 05:22:00,69.7,68.0,29.77,WNW,292,2.6,4.4,94,0.00,,,0.00,Rainwise IP-100,2013-05-04 09:22:00,
2013-05-04 05:27:00,69.6,68.0,29.77,WSW,247,1.6,3.7,94,0.00,,,0.00,Rainwise IP-100,2013-05-04 09:27:00,
2013-05-04 05:33:00,69.5,68.0,29.77,WSW,247,3.0,4.4,94,0.00,,,0.00,Rainwise IP-100,2013-05-04 09:33:00,
2013-05-04 05:38:00,69.5,68.0,29.77,West,270,3.5,4.9,94,0.00,,,0.00,Rainwise IP-100,2013-05-04 09:38:00,
2013-05-04 05:43:00,69.5,68.0,29.76,NW,315,1.4,5.4,95,0.00,,,0.00,Rainwise IP-100,2013-05-04 09:43:00,
2013-05-04 05:48:00,69.4,67.5,29.77,West,270,4.0,5.4,95,0.00,,,0.00,Rainwise IP-100,2013-05-04 09:48:00,
2013-05-04 05:53:00,69.4,67.5,29.77,WNW,292,3.0,4.4,95,0.00,,,0.00,Rainwise IP-100,2013-05-04 09:53:00,
2013-05-04 05:58:00,69.5,68.0,29.77,WNW,292,1.4,4.9,95,0.00,,,0.00,Rainwise IP-100,2013-05-04 09:58:00,
2013-05-04 06:03:00,69.5,68.0,29.77,WNW,292,1.9,4.0,95,0.00,,,0.00,Rainwise IP-100,2013-05-04 10:03:00,
2013-05-04 06:08:00,69.4,67.5,29.78,WNW,292,2.8,4.0,95,0.00,,,0.00,Rainwise IP-100,2013-05-04 10:08:00,
2013-05-04 06:14:00,69.3,67.5,29.78,WNW,292,2.3,4.0,95,0.00,,,0.00,Rainwise IP-100,2013-05-04 10:14:00,
2013-05-04 06:19:00,69.3,67.5,29.78,WNW,292,3.0,4.2,95,0.00,,,0.00,Rainwise IP-100,2013-05-04 10:19:00,
2013-05-04 06:24:00,69.3,67.5,29.78,WNW,292,2.1,4.4,95,0.00,,,0.00,Rainwise IP-100,2013-05-04 10:24:00,
2013-05-04 06:29:00,69.2,67.5,29.79,WNW,292,3.5,3.5,95,0.00,,,0.00,Rainwise IP-100,2013-05-04 10:29:00,
2013-05-04 06:34:00,69.2,67.5,29.79,WNW,292,1.4,3.7,95,0.00,,,0.00,Rainwise IP-100,2013-05-04 10:34:00,
2013-05-04 06:39:00,69.0,67.0,29.79,WNW,292,1.4,4.2,95,0.00,,,0.00,Rainwise IP-100,2013-05-04 10:39:00,
2013-05-04 06:44:00,69.0,67.0,29.80,WNW,292,3.3,4.0,95,0.00,,,0.00,Rainwise IP-100,2013-05-04 10:44:00,
2013-05-04 06:50:00,69.0,67.0,29.80,West,270,4.9,4.9,95,0.00,,,0.00,Rainwise IP-100,2013-05-04 10:50:00,
2013-05-04 06:55:00,69.0,67.5,29.80,WNW,292,1.4,4.9,96,0.00,,,0.00,Rainwise IP-100,2013-05-04 10:55:00,
2013-05-04 07:00:00,69.0,67.5,29.80,WSW,247,3.7,3.7,96,0.00,,,0.00,Rainwise IP-100,2013-05-04 11:00:00,
2013-05-04 07:05:00,69.1,67.5,29.80,WNW,292,3.5,4.4,96,0.00,,,0.00,Rainwise IP-100,2013-05-04 11:05:00,
2013-05-04 07:10:00,69.2,68.0,29.81,WNW,292,5.4,5.4,96,0.00,,,0.00,Rainwise IP-100,2013-05-04 11:10:00,
2013-05-04 07:15:00,69.3,68.0,29.80,WNW,292,0.0,5.6,96,0.00,,,0.00,Rainwise IP-100,2013-05-04 11:15:00,
2013-05-04 07:20:00,69.4,68.0,29.81,WSW,247,2.8,6.1,96,0.00,,,0.00,Rainwise IP-100,2013-05-04 11:20:00,
2013-05-04 07:25:00,69.5,68.5,29.81,West,270,1.2,4.7,96,0.00,,,0.00,Rainwise IP-100,2013-05-04 11:25:00,
2013-05-04 07:31:00,69.6,68.5,29.81,West,270,1.2,3.3,96,0.00,,,0.00,Rainwise IP-100,2013-05-04 11:31:00,
2013-05-04 07:36:00,69.7,68.5,29.81,WSW,247,4.4,4.4,96,0.00,,,0.00,Rainwise IP-100,2013-05-04 11:36:00,
2013-05-04 07:41:00,69.8,68.5,29.81,WNW,292,1.4,5.6,96,0.00,,,0.00,Rainwise IP-100,2013-05-04 11:41:00,
2013-05-04 07:46:00,70.0,69.0,29.81,WSW,247,3.5,7.0,96,0.00,,,0.00,Rainwise IP-100,2013-05-04 11:46:00,
2013-05-04 07:51:00,70.4,69.0,29.81,WNW,292,2.6,6.1,95,0.00,,,0.00,Rainwise IP-100,2013-05-04 11:51:00,
2013-05-04 07:56:00,70.6,69.0,29.82,West,270,6.5,9.1,95,0.00,,,0.00,Rainwise IP-100,2013-05-04 11:56:00,
2013-05-04 08:01:00,70.8,69.0,29.82,West,270,5.8,10.5,94,0.00,,,0.00,Rainwise IP-100,2013-05-04 12:01:00,
2013-05-04 08:07:00,71.2,69.3,29.81,WNW,292,5.6,7.2,94,0.00,,,0.00,Rainwise IP-100,2013-05-04 12:07:00,
2013-05-04 08:12:00,71.5,69.7,29.81,WNW,292,7.2,10.3,93,0.00,,,0.00,Rainwise IP-100,2013-05-04 12:12:00,
2013-05-04 08:17:00,71.6,69.3,29.81,WSW,247,5.6,8.6,92,0.00,,,0.00,Rainwise IP-100,2013-05-04 12:17:00,
2013-05-04 08:22:00,71.8,69.0,29.81,WNW,292,4.2,10.0,91,0.00,,,0.00,Rainwise IP-100,2013-05-04 12:22:00,
2013-05-04 08:27:00,72.0,69.0,29.81,WNW,292,7.7,10.5,90,0.00,,,0.00,Rainwise IP-100,2013-05-04 12:27:00,
2013-05-04 08:32:00,72.2,69.0,29.81,WNW,292,6.5,8.9,89,0.00,,,0.00,Rainwise IP-100,2013-05-04 12:32:00,
2013-05-04 08:37:00,72.5,69.0,29.82,WNW,292,5.6,11.7,88,0.00,,,0.00,Rainwise IP-100,2013-05-04 12:37:00,
2013-05-04 08:42:00,72.8,68.5,29.82,West,270,8.4,9.6,87,0.00,,,0.00,Rainwise IP-100,2013-05-04 12:42:00,
2013-05-04 08:48:00,73.3,69.0,29.81,WSW,247,6.1,12.6,85,0.00,,,0.00,Rainwise IP-100,2013-05-04 12:48:00,
2013-05-04 08:52:00,73.6,69.0,29.81,WSW,247,9.3,11.0,85,0.00,,,0.00,Rainwise IP-100,2013-05-04 12:52:00,
2013-05-04 08:57:00,73.8,69.0,29.81,West,270,7.9,11.0,84,0.00,,,0.00,Rainwise IP-100,2013-05-04 12:57:00,
2013-05-04 09:02:00,74.1,69.0,29.81,West,270,5.1,12.1,83,0.00,,,0.00,Rainwise IP-100,2013-05-04 13:02:00,
2013-05-04 09:07:00,74.2,69.0,29.81,WNW,292,8.4,16.3,82,0.00,,,0.00,Rainwise IP-100,2013-05-04 13:07:00,
2013-05-04 09:13:00,74.2,68.5,29.82,NNW,337,2.8,14.7,81,0.00,,,0.00,Rainwise IP-100,2013-05-04 13:13:00,
2013-05-04 09:18:00,74.4,68.0,29.82,WNW,292,4.9,14.2,80,0.00,,,0.00,Rainwise IP-100,2013-05-04 13:18:00,
2013-05-04 09:23:00,74.8,68.5,29.82,WNW,292,3.5,10.7,80,0.00,,,0.00,Rainwise IP-100,2013-05-04 13:23:00,
2013-05-04 09:28:00,75.2,68.5,29.81,West,270,11.0,14.9,79,0.00,,,0.00,Rainwise IP-100,2013-05-04 13:28:00,
2013-05-04 09:33:00,75.2,68.0,29.81,WNW,292,11.0,15.6,78,0.00,,,0.00,Rainwise IP-100,2013-05-04 13:33:00,
2013-05-04 09:38:00,75.0,68.0,29.82,WNW,292,7.2,11.2,78,0.00,,,0.00,Rainwise IP-100,2013-05-04 13:38:00,
2013-05-04 09:43:00,75.3,68.0,29.82,West,270,12.4,14.0,77,0.00,,,0.00,Rainwise IP-100,2013-05-04 13:43:00,
2013-05-04 09:48:00,75.6,67.5,29.82,WNW,292,5.8,15.2,76,0.00,,,0.00,Rainwise IP-100,2013-05-04 13:48:00,
2013-05-04 09:54:00,75.7,67.0,29.81,West,270,9.3,14.5,75,0.00,,,0.00,Rainwise IP-100,2013-05-04 13:54:00,
2013-05-04 09:59:00,76.0,67.0,29.82,WNW,292,6.1,14.7,74,0.00,,,0.00,Rainwise IP-100,2013-05-04 13:59:00,
2013-05-04 10:04:00,76.2,66.7,29.82,WSW,247,10.0,16.8,72,0.00,,,0.00,Rainwise IP-100,2013-05-04 14:04:00,
2013-05-04 10:09:00,76.3,66.7,29.82,NW,315,2.8,12.1,73,0.00,,,0.00,Rainwise IP-100,2013-05-04 14:09:00,
2013-05-04 10:14:00,76.6,67.0,29.82,NNW,337,5.6,13.3,73,0.00,,,0.00,Rainwise IP-100,2013-05-04 14:14:00,
2013-05-04 10:19:00,76.9,67.5,29.83,WSW,247,4.9,11.7,72,0.00,,,0.00,Rainwise IP-100,2013-05-04 14:19:00,
2013-05-04 10:24:00,77.2,67.5,29.82,WSW,247,8.9,16.3,72,0.00,,,0.00,Rainwise IP-100,2013-05-04 14:24:00,
2013-05-04 10:30:00,77.4,67.5,29.82,WSW,247,5.8,12.1,72,0.00,,,0.00,Rainwise IP-100,2013-05-04 14:30:00,
2013-05-04 10:31:00,77.4,67.0,29.82,WNW,292,3.3,12.1,71,0.00,,,0.00,Rainwise IP-100,2013-05-04 14:31:00,
2013-05-04 10:36:00,77.5,67.5,29.82,WSW,247,5.6,14.5,71,0.00,,,0.00,Rainwise IP-100,2013-05-04 14:36:00,
2013-05-04 10:41:00,77.8,67.0,29.83,WSW,247,1.9,13.3,70,0.00,,,0.00,Rainwise IP-100,2013-05-04 14:41:00,
2013-05-04 10:46:00,78.3,67.5,29.82,WNW,292,8.4,12.6,69,0.00,,,0.00,Rainwise IP-100,2013-05-04 14:46:00,
2013-05-04 10:51:00,78.5,67.5,29.83,West,270,6.1,12.8,69,0.00,,,0.00,Rainwise IP-100,2013-05-04 14:51:00,
2013-05-04 10:57:00,78.5,67.5,29.83,WSW,247,5.4,12.4,69,0.00,,,0.00,Rainwise IP-100,2013-05-04 14:57:00,
2013-05-04 11:02:00,78.6,67.0,29.83,West,270,6.1,12.1,68,0.00,,,0.00,Rainwise IP-100,2013-05-04 15:02:00,
2013-05-04 11:07:00,79.0,67.0,29.83,WNW,292,7.9,14.2,67,0.00,,,0.00,Rainwise IP-100,2013-05-04 15:07:00,
2013-05-04 11:12:00,79.0,67.0,29.82,WSW,247,5.4,10.7,67,0.00,,,0.00,Rainwise IP-100,2013-05-04 15:12:00,
2013-05-04 11:17:00,78.7,66.3,29.83,WNW,292,13.1,14.9,66,0.00,,,0.00,Rainwise IP-100,2013-05-04 15:17:00,
2013-05-04 11:22:00,78.8,66.3,29.83,WNW,292,5.4,13.1,66,0.00,,,0.00,Rainwise IP-100,2013-05-04 15:22:00,
2013-05-04 11:27:00,79.1,67.0,29.82,WNW,292,4.7,9.6,67,0.00,,,0.00,Rainwise IP-100,2013-05-04 15:27:00,
2013-05-04 11:32:00,79.4,67.0,29.83,WNW,292,10.5,10.5,66,0.00,,,0.00,Rainwise IP-100,2013-05-04 15:32:00,
2013-05-04 11:38:00,79.4,66.7,29.83,WNW,292,3.5,16.1,65,0.00,,,0.00,Rainwise IP-100,2013-05-04 15:38:00,
2013-05-04 11:43:00,79.7,66.7,29.83,West,270,5.1,13.3,65,0.00,,,0.00,Rainwise IP-100,2013-05-04 15:43:00,
2013-05-04 11:48:00,80.1,66.7,29.83,SSW,202,3.3,13.3,64,0.00,,,0.00,Rainwise IP-100,2013-05-04 15:48:00,
2013-05-04 11:53:00,80.1,66.3,29.82,WSW,247,4.4,12.8,63,0.00,,,0.00,Rainwise IP-100,2013-05-04 15:53:00,
2013-05-04 11:58:00,80.1,66.3,29.83,West,270,3.0,13.5,63,0.00,,,0.00,Rainwise IP-100,2013-05-04 15:58:00,
2013-05-04 12:03:00,80.3,66.0,29.82,NW,315,4.9,11.2,62,0.00,,,0.00,Rainwise IP-100,2013-05-04 16:03:00,
2013-05-04 12:08:00,80.4,66.3,29.82,WNW,292,4.9,9.8,62,0.00,,,0.00,Rainwise IP-100,2013-05-04 16:08:00,
2013-05-04 12:14:00,80.6,66.3,29.82,WSW,247,9.3,11.4,62,0.00,,,0.00,Rainwise IP-100,2013-05-04 16:14:00,
2013-05-04 12:19:00,80.6,66.0,29.82,WNW,292,8.2,14.0,61,0.00,,,0.00,Rainwise IP-100,2013-05-04 16:19:00,
2013-05-04 12:24:00,80.9,66.3,29.81,WSW,247,3.0,15.6,61,0.00,,,0.00,Rainwise IP-100,2013-05-04 16:24:00,
2013-05-04 12:29:00,80.8,66.3,29.81,NNW,337,4.7,14.5,61,0.00,,,0.00,Rainwise IP-100,2013-05-04 16:29:00,
2013-05-04 12:34:00,80.8,66.3,29.81,WNW,292,4.7,7.7,61,0.00,,,0.00,Rainwise IP-100,2013-05-04 16:34:00,
2013-05-04 12:39:00,81.3,66.7,29.82,WNW,292,9.3,11.9,61,0.00,,,0.00,Rainwise IP-100,2013-05-04 16:39:00,
2013-05-04 12:44:00,81.1,66.3,29.81,West,270,6.1,11.4,61,0.00,,,0.00,Rainwise IP-100,2013-05-04 16:44:00,
2013-05-04 12:49:00,81.1,66.3,29.81,West,270,9.6,14.5,61,0.00,,,0.00,Rainwise IP-100,2013-05-04 16:49:00,
2013-05-04 12:55:00,81.3,66.3,29.81,WNW,292,7.7,17.0,60,0.00,,,0.00,Rainwise IP-100,2013-05-04 16:55:00,
2013-05-04 13:00:00,81.8,66.3,29.81,NNW,337,7.7,12.6,60,0.00,,,0.00,Rainwise IP-100,2013-05-04 17:00:00,
2013-05-04 13:05:00,82.0,66.7,29.80,WNW,292,6.1,9.8,60,0.00,,,0.00,Rainwise IP-100,2013-05-04 17:05:00,
2013-05-04 13:10:00,81.8,66.3,29.80,WNW,292,8.2,13.8,60,0.00,,,0.00,Rainwise IP-100,2013-05-04 17:10:00,
2013-05-04 13:15:00,81.9,66.7,29.80,WSW,247,5.4,12.8,60,0.00,,,0.00,Rainwise IP-100,2013-05-04 17:15:00,
2013-05-04 13:20:00,82.5,66.3,29.80,West,270,7.7,11.9,58,0.00,,,0.00,Rainwise IP-100,2013-05-04 17:20:00,
2013-05-04 13:25:00,82.8,66.0,29.80,WNW,292,8.4,11.9,57,0.00,,,0.00,Rainwise IP-100,2013-05-04 17:25:00,
2013-05-04 13:31:00,82.6,65.5,29.80,NNW,337,5.4,14.2,56,0.00,,,0.00,Rainwise IP-100,2013-05-04 17:31:00,
2013-05-04 13:36:00,82.6,66.0,29.80,West,270,10.7,12.6,57,0.00,,,0.00,Rainwise IP-100,2013-05-04 17:36:00,
2013-05-04 13:41:00,82.8,65.5,29.80,WNW,292,11.2,13.5,56,0.00,,,0.00,Rainwise IP-100,2013-05-04 17:41:00,
2013-05-04 13:46:00,83.0,65.5,29.80,WNW,292,9.8,15.6,55,0.00,,,0.00,Rainwise IP-100,2013-05-04 17:46:00,
2013-05-04 13:51:00,83.3,65.5,29.79,WSW,247,9.6,10.5,55,0.00,,,0.00,Rainwise IP-100,2013-05-04 17:51:00,
2013-05-04 13:56:00,83.5,65.5,29.79,WNW,292,8.4,15.2,54,0.00,,,0.00,Rainwise IP-100,2013-05-04 17:56:00,
2013-05-04 14:01:00,83.1,65.5,29.79,NW,315,3.3,11.7,55,0.00,,,0.00,Rainwise IP-100,2013-05-04 18:01:00,
2013-05-04 14:06:00,83.1,66.0,29.79,WNW,292,7.0,9.3,56,0.00,,,0.00,Rainwise IP-100,2013-05-04 18:06:00,
2013-05-04 14:12:00,83.2,66.0,29.79,WNW,292,4.4,10.0,56,0.00,,,0.00,Rainwise IP-100,2013-05-04 18:12:00,
2013-05-04 14:17:00,83.3,65.5,29.79,WNW,292,5.8,13.5,55,0.00,,,0.00,Rainwise IP-100,2013-05-04 18:17:00,
2013-05-04 14:22:00,83.2,65.5,29.79,WSW,247,9.8,14.5,55,0.00,,,0.00,Rainwise IP-100,2013-05-04 18:22:00,
2013-05-04 14:27:00,83.2,65.0,29.79,West,270,4.4,13.8,54,0.00,,,0.00,Rainwise IP-100,2013-05-04 18:27:00,
2013-05-04 14:32:00,83.9,66.0,29.79,SW,225,0.0,12.4,54,0.00,,,0.00,Rainwise IP-100,2013-05-04 18:32:00,
2013-05-04 14:37:00,84.4,65.5,29.78,WNW,292,5.1,12.4,53,0.00,,,0.00,Rainwise IP-100,2013-05-04 18:37:00,
2013-05-04 14:42:00,85.1,65.5,29.78,WSW,247,4.4,13.8,52,0.00,,,0.00,Rainwise IP-100,2013-05-04 18:42:00,
2013-05-04 14:48:00,85.6,66.0,29.77,WNW,292,6.5,13.1,52,0.00,,,0.00,Rainwise IP-100,2013-05-04 18:48:00,
2013-05-04 14:53:00,84.9,65.0,29.77,WSW,247,6.1,14.7,51,0.00,,,0.00,Rainwise IP-100,2013-05-04 18:53:00,
2013-05-04 14:58:00,84.5,65.0,29.77,West,270,8.4,11.0,52,0.00,,,0.00,Rainwise IP-100,2013-05-04 18:58:00,
2013-05-04 15:03:00,84.1,64.5,29.77,WSW,247,4.2,11.4,52,0.00,,,0.00,Rainwise IP-100,2013-05-04 19:03:00,
2013-05-04 15:08:00,83.8,65.0,29.76,WNW,292,11.4,12.6,53,0.00,,,0.00,Rainwise IP-100,2013-05-04 19:08:00,
2013-05-04 15:13:00,83.9,64.5,29.76,WNW,292,7.9,14.0,52,0.00,,,0.00,Rainwise IP-100,2013-05-04 19:13:00,
2013-05-04 15:18:00,84.3,64.5,29.76,WSW,247,6.1,10.3,51,0.00,,,0.00,Rainwise IP-100,2013-05-04 19:18:00,
2013-05-04 15:23:00,84.7,64.0,29.76,West,270,8.4,15.2,50,0.00,,,0.00,Rainwise IP-100,2013-05-04 19:23:00,
2013-05-04 15:29:00,84.8,64.0,29.75,WNW,292,1.2,12.4,50,0.00,,,0.00,Rainwise IP-100,2013-05-04 19:29:00,
2013-05-04 15:34:00,85.3,64.5,29.75,WSW,247,6.8,9.8,50,0.00,,,0.00,Rainwise IP-100,2013-05-04 19:34:00,
2013-05-04 15:39:00,85.5,64.0,29.75,WNW,292,12.6,13.5,49,0.00,,,0.00,Rainwise IP-100,2013-05-04 19:39:00,
2013-05-04 15:44:00,85.1,63.5,29.75,West,270,8.4,12.6,49,0.00,,,0.00,Rainwise IP-100,2013-05-04 19:44:00,
2013-05-04 15:49:00,85.3,64.0,29.75,WNW,292,7.9,8.9,49,0.00,,,0.00,Rainwise IP-100,2013-05-04 19:49:00,
2013-05-04 15:54:00,86.1,64.5,29.75,WNW,292,7.9,13.1,49,0.00,,,0.00,Rainwise IP-100,2013-05-04 19:54:00,
2013-05-04 15:59:00,86.4,64.5,29.75,WSW,247,7.9,13.8,48,0.00,,,0.00,Rainwise IP-100,2013-05-04 19:59:00,
2013-05-04 16:04:00,86.6,64.0,29.76,WNW,292,7.7,10.3,47,0.00,,,0.00,Rainwise IP-100,2013-05-04 20:04:00,
2013-05-04 16:10:00,86.4,64.0,29.76,WNW,292,5.1,8.6,47,0.00,,,0.00,Rainwise IP-100,2013-05-04 20:10:00,
2013-05-04 16:15:00,85.8,64.0,29.76,WNW,292,3.7,8.2,48,0.00,,,0.00,Rainwise IP-100,2013-05-04 20:15:00,
2013-05-04 16:20:00,85.6,64.0,29.75,NW,315,9.3,9.3,49,0.00,,,0.00,Rainwise IP-100,2013-05-04 20:20:00,
2013-05-04 16:25:00,85.4,64.0,29.75,West,270,6.5,14.2,49,0.00,,,0.00,Rainwise IP-100,2013-05-04 20:25:00,
2013-05-04 16:30:00,85.4,65.0,29.75,North,360,7.7,9.8,50,0.00,,,0.00,Rainwise IP-100,2013-05-04 20:30:00,
2013-05-04 16:35:00,86.0,64.5,29.75,WSW,247,3.5,14.2,49,0.00,,,0.00,Rainwise IP-100,2013-05-04 20:35:00,
2013-05-04 16:40:00,86.3,64.0,29.75,WSW,247,3.7,12.1,48,0.00,,,0.00,Rainwise IP-100,2013-05-04 20:40:00,
2013-05-04 16:46:00,86.8,64.5,29.75,WNW,292,10.3,15.4,48,0.00,,,0.00,Rainwise IP-100,2013-05-04 20:46:00,
2013-05-04 16:51:00,86.5,64.5,29.75,WSW,247,4.2,16.3,48,0.00,,,0.00,Rainwise IP-100,2013-05-04 20:51:00,
2013-05-04 16:56:00,85.9,64.5,29.76,WNW,292,9.6,16.8,49,0.00,,,0.00,Rainwise IP-100,2013-05-04 20:56:00,
2013-05-04 17:01:00,85.4,64.0,29.76,WNW,292,8.2,13.1,49,0.00,,,0.00,Rainwise IP-100,2013-05-04 21:01:00,
2013-05-04 17:06:00,85.0,63.5,29.76,NNW,337,6.1,8.6,49,0.00,,,0.00,Rainwise IP-100,2013-05-04 21:06:00,
2013-05-04 17:11:00,84.9,64.5,29.75,West,270,6.1,11.4,50,0.00,,,0.00,Rainwise IP-100,2013-05-04 21:11:00,
2013-05-04 17:16:00,84.8,64.5,29.75,WNW,292,9.3,10.0,51,0.00,,,0.00,Rainwise IP-100,2013-05-04 21:16:00,
2013-05-04 17:21:00,84.7,64.5,29.76,NNW,337,5.4,16.6,51,0.00,,,0.00,Rainwise IP-100,2013-05-04 21:21:00,
2013-05-04 17:27:00,84.6,65.0,29.76,WNW,292,4.0,15.2,52,0.00,,,0.00,Rainwise IP-100,2013-05-04 21:27:00,
2013-05-04 17:32:00,84.5,65.0,29.76,WSW,247,4.4,12.6,52,0.00,,,0.00,Rainwise IP-100,2013-05-04 21:32:00,
2013-05-04 17:37:00,84.4,65.0,29.76,WNW,292,9.1,14.2,52,0.00,,,0.00,Rainwise IP-100,2013-05-04 21:37:00,
2013-05-04 17:42:00,84.4,65.0,29.76,WNW,292,7.0,13.8,52,0.00,,,0.00,Rainwise IP-100,2013-05-04 21:42:00,
2013-05-04 17:47:00,84.3,65.0,29.76,WNW,292,5.6,17.7,52,0.00,,,0.00,Rainwise IP-100,2013-05-04 21:47:00,
2013-05-04 17:52:00,84.2,65.5,29.77,WNW,292,8.9,17.7,53,0.00,,,0.00,Rainwise IP-100,2013-05-04 21:52:00,
2013-05-04 17:57:00,84.1,65.5,29.76,NW,315,7.2,14.0,53,0.00,,,0.00,Rainwise IP-100,2013-05-04 21:57:00,
2013-05-04 18:03:00,84.1,64.5,29.77,WNW,292,6.1,18.7,52,0.00,,,0.00,Rainwise IP-100,2013-05-04 22:03:00,
2013-05-04 18:08:00,84.1,64.5,29.77,West,270,8.4,18.4,52,0.00,,,0.00,Rainwise IP-100,2013-05-04 22:08:00,
2013-05-04 18:13:00,84.3,65.0,29.77,WNW,292,9.1,16.6,52,0.00,,,0.00,Rainwise IP-100,2013-05-04 22:13:00,
2013-05-04 18:18:00,83.9,65.5,29.77,WSW,247,9.8,18.2,53,0.00,,,0.00,Rainwise IP-100,2013-05-04 22:18:00,
2013-05-04 18:23:00,83.5,65.5,29.77,WNW,292,6.3,13.1,54,0.00,,,0.00,Rainwise IP-100,2013-05-04 22:23:00,
2013-05-04 18:28:00,83.3,65.0,29.77,WSW,247,5.1,10.0,54,0.00,,,0.00,Rainwise IP-100,2013-05-04 22:28:00,
2013-05-04 18:33:00,83.5,65.5,29.78,West,270,2.6,11.2,54,0.00,,,0.00,Rainwise IP-100,2013-05-04 22:33:00,
2013-05-04 18:38:00,83.8,64.5,29.77,WNW,292,14.2,14.2,52,0.00,,,0.00,Rainwise IP-100,2013-05-04 22:38:00,
2013-05-04 18:44:00,83.8,64.5,29.77,NW,315,5.1,16.3,52,0.00,,,0.00,Rainwise IP-100,2013-05-04 22:44:00,
2013-05-04 18:49:00,83.5,64.0,29.77,WNW,292,6.1,13.3,52,0.00,,,0.00,Rainwise IP-100,2013-05-04 22:49:00,
2013-05-04 18:54:00,83.3,64.5,29.77,WNW,292,6.8,16.8,53,0.00,,,0.00,Rainwise IP-100,2013-05-04 22:54:00,
2013-05-04 18:59:00,83.3,64.5,29.77,WNW,292,3.3,12.6,53,0.00,,,0.00,Rainwise IP-100,2013-05-04 22:59:00,
2013-05-04 19:04:00,83.4,64.5,29.77,NNW,337,7.2,15.6,53,0.00,,,0.00,Rainwise IP-100,2013-05-04 23:04:00,
2013-05-04 19:09:00,83.3,65.0,29.78,WNW,292,5.4,13.8,54,0.00,,,0.00,Rainwise IP-100,2013-05-04 23:09:00,
2013-05-04 19:14:00,83.1,65.0,29.78,WNW,292,12.4,14.5,54,0.00,,,0.00,Rainwise IP-100,2013-05-04 23:14:00,
2013-05-04 19:20:00,82.9,65.0,29.78,WNW,292,5.4,12.8,54,0.00,,,0.00,Rainwise IP-100,2013-05-04 23:20:00,
2013-05-04 19:25:00,82.7,65.0,29.78,WNW,292,5.4,18.2,55,0.00,,,0.00,Rainwise IP-100,2013-05-04 23:25:00,
2013-05-04 19:30:00,82.4,65.0,29.78,WSW,247,9.8,18.4,55,0.00,,,0.00,Rainwise IP-100,2013-05-04 23:30:00,
2013-05-04 19:35:00,82.1,63.5,29.78,WNW,292,4.9,14.7,54,0.00,,,0.00,Rainwise IP-100,2013-05-04 23:35:00,
2013-05-04 19:40:00,81.8,63.0,29.79,WNW,292,9.1,16.6,53,0.00,,,0.00,Rainwise IP-100,2013-05-04 23:40:00,
2013-05-04 19:45:00,81.6,63.0,29.79,West,270,4.9,17.5,53,0.00,,,0.00,Rainwise IP-100,2013-05-04 23:45:00,
2013-05-04 19:50:00,81.4,62.5,29.79,WSW,247,2.8,10.5,53,0.00,,,0.00,Rainwise IP-100,2013-05-04 23:50:00,
2013-05-04 19:55:00,81.2,63.0,29.80,WSW,247,2.6,11.9,54,0.00,,,0.00,Rainwise IP-100,2013-05-04 23:55:00,
2013-05-04 20:01:00,80.9,63.0,29.80,WNW,292,3.5,11.4,54,0.00,,,0.00,Rainwise IP-100,2013-05-05 00:01:00,
2013-05-04 20:06:00,80.7,63.0,29.80,WSW,247,1.2,10.7,55,0.00,,,0.00,Rainwise IP-100,2013-05-05 00:06:00,
2013-05-04 20:11:00,80.5,63.5,29.81,West,270,6.8,9.8,56,0.00,,,0.00,Rainwise IP-100,2013-05-05 00:11:00,
2013-05-04 20:16:00,80.2,63.5,29.80,West,270,4.9,12.6,57,0.00,,,0.00,Rainwise IP-100,2013-05-05 00:16:00,
2013-05-04 20:21:00,80.0,64.0,29.80,WNW,292,5.1,11.4,58,0.00,,,0.00,Rainwise IP-100,2013-05-05 00:21:00,
2013-05-04 20:26:00,79.7,64.0,29.80,WNW,292,5.6,10.5,59,0.00,,,0.00,Rainwise IP-100,2013-05-05 00:26:00,
2013-05-04 20:31:00,79.5,64.0,29.81,West,270,5.6,13.1,59,0.00,,,0.00,Rainwise IP-100,2013-05-05 00:31:00,
2013-05-04 20:37:00,79.2,64.5,29.81,WNW,292,4.4,15.4,60,0.00,,,0.00,Rainwise IP-100,2013-05-05 00:37:00,
2013-05-04 20:42:00,79.0,64.5,29.81,WNW,292,5.4,11.2,61,0.00,,,0.00,Rainwise IP-100,2013-05-05 00:42:00,
2013-05-04 20:47:00,78.8,64.0,29.81,WNW,292,2.6,16.6,61,0.00,,,0.00,Rainwise IP-100,2013-05-05 00:47:00,
2013-05-04 20:52:00,78.7,64.5,29.82,West,270,12.1,12.1,62,0.00,,,0.00,Rainwise IP-100,2013-05-05 00:52:00,
2013-05-04 20:57:00,78.5,65.0,29.82,WSW,247,3.5,12.6,63,0.00,,,0.00,Rainwise IP-100,2013-05-05 00:57:00,
2013-05-04 21:02:00,78.2,65.0,29.82,West,270,9.8,16.6,63,0.00,,,0.00,Rainwise IP-100,2013-05-05 01:02:00,
2013-05-04 21:07:00,78.0,65.0,29.82,WNW,292,7.9,13.8,64,0.00,,,0.00,Rainwise IP-100,2013-05-05 01:07:00,
2013-05-04 21:12:00,77.8,65.0,29.83,WSW,247,2.8,12.4,65,0.00,,,0.00,Rainwise IP-100,2013-05-05 01:12:00,
2013-05-04 21:18:00,77.6,65.0,29.83,WSW,247,6.8,11.0,65,0.00,,,0.00,Rainwise IP-100,2013-05-05 01:18:00,
2013-05-04 21:23:00,77.4,65.5,29.83,WNW,292,3.3,7.7,66,0.00,,,0.00,Rainwise IP-100,2013-05-05 01:23:00,
2013-05-04 21:28:00,77.2,65.5,29.83,West,270,4.9,9.3,66,0.00,,,0.00,Rainwise IP-100,2013-05-05 01:28:00,
2013-05-04 21:33:00,77.0,65.0,29.83,West,270,9.8,9.8,66,0.00,,,0.00,Rainwise IP-100,2013-05-05 01:33:00,
2013-05-04 21:38:00,76.9,65.5,29.83,WNW,292,6.3,9.8,67,0.00,,,0.00,Rainwise IP-100,2013-05-05 01:38:00,
2013-05-04 21:43:00,76.7,65.0,29.84,WSW,247,4.9,10.7,67,0.00,,,0.00,Rainwise IP-100,2013-05-05 01:43:00,
2013-05-04 21:48:00,76.6,65.5,29.83,West,270,8.2,11.0,68,0.00,,,0.00,Rainwise IP-100,2013-05-05 01:48:00,
2013-05-04 21:54:00,76.5,65.5,29.84,WSW,247,8.9,13.5,68,0.00,,,0.00,Rainwise IP-100,2013-05-05 01:54:00,
2013-05-04 21:59:00,76.4,65.5,29.84,WNW,292,5.4,12.1,68,0.00,,,0.00,Rainwise IP-100,2013-05-05 01:59:00,
2013-05-04 22:04:00,76.2,65.0,29.84,WSW,247,3.3,14.0,68,0.00,,,0.00,Rainwise IP-100,2013-05-05 02:04:00,
2013-05-04 22:09:00,76.1,64.5,29.84,WSW,247,4.4,11.7,68,0.00,,,0.00,Rainwise IP-100,2013-05-05 02:09:00,
2013-05-04 22:14:00,75.9,65.0,29.85,WSW,247,5.8,10.7,69,0.00,,,0.00,Rainwise IP-100,2013-05-05 02:14:00,
2013-05-04 22:19:00,75.8,65.0,29.85,WSW,247,4.2,12.6,69,0.00,,,0.00,Rainwise IP-100,2013-05-05 02:19:00,
2013-05-04 22:24:00,75.5,65.0,29.86,WSW,247,4.2,12.8,70,0.00,,,0.00,Rainwise IP-100,2013-05-05 02:24:00,
2013-05-04 22:29:00,75.4,65.0,29.85,WSW,247,5.6,10.3,70,0.00,,,0.00,Rainwise IP-100,2013-05-05 02:29:00,
2013-05-04 22:35:00,75.3,65.0,29.85,WNW,292,2.8,13.3,70,0.00,,,0.00,Rainwise IP-100,2013-05-05 02:35:00,
2013-05-04 22:40:00,75.2,65.0,29.86,WSW,247,6.8,13.1,70,0.00,,,0.00,Rainwise IP-100,2013-05-05 02:40:00,
2013-05-04 22:45:00,75.1,65.0,29.86,West,270,8.6,15.2,70,0.00,,,0.00,Rainwise IP-100,2013-05-05 02:45:00,
2013-05-04 22:50:00,75.0,65.0,29.86,WSW,247,4.9,11.4,71,0.00,,,0.00,Rainwise IP-100,2013-05-05 02:50:00,
2013-05-04 22:55:00,74.9,65.0,29.87,WNW,292,5.1,11.7,71,0.00,,,0.00,Rainwise IP-100,2013-05-05 02:55:00,
2013-05-04 23:00:00,74.8,65.0,29.86,West,270,8.2,14.7,71,0.00,,,0.00,Rainwise IP-100,2013-05-05 03:00:00,
2013-05-04 23:05:00,74.6,65.0,29.86,WNW,292,6.8,12.6,71,0.00,,,0.00,Rainwise IP-100,2013-05-05 03:05:00,
2013-05-04 23:11:00,74.4,64.5,29.86,WNW,292,3.3,12.4,71,0.00,,,0.00,Rainwise IP-100,2013-05-05 03:11:00,
2013-05-04 23:16:00,74.3,65.0,29.86,West,270,2.8,15.6,72,0.00,,,0.00,Rainwise IP-100,2013-05-05 03:16:00,
2013-05-04 23:21:00,74.3,65.0,29.87,WSW,247,3.0,14.9,72,0.00,,,0.00,Rainwise IP-100,2013-05-05 03:21:00,
2013-05-04 23:26:00,74.2,65.0,29.87,WNW,292,6.8,14.5,72,0.00,,,0.00,Rainwise IP-100,2013-05-05 03:26:00,
2013-05-04 23:31:00,74.0,64.5,29.87,WSW,247,4.7,13.5,72,0.00,,,0.00,Rainwise IP-100,2013-05-05 03:31:00,
2013-05-04 23:36:00,73.9,65.0,29.87,WNW,292,10.7,19.1,73,0.00,,,0.00,Rainwise IP-100,2013-05-05 03:36:00,
2013-05-04 23:41:00,73.8,64.5,29.87,WNW,292,10.5,12.8,73,0.00,,,0.00,Rainwise IP-100,2013-05-05 03:41:00,
2013-05-04 23:46:00,73.7,64.5,29.86,WNW,292,2.3,15.9,73,0.00,,,0.00,Rainwise IP-100,2013-05-05 03:46:00,
2013-05-04 23:52:00,73.5,64.5,29.87,WNW,292,9.8,9.8,73,0.00,,,0.00,Rainwise IP-100,2013-05-05 03:52:00,
2013-05-04 23:57:00,73.4,64.5,29.87,West,270,6.8,16.8,74,0.00,,,0.00,Rainwise IP-100,2013-05-05 03:57:00,